AMU936 VMMC-VTBS

Flight info

Callsign AMU936
Flight time 2h 20m
Altitude 36000
Route ALLEY V10 SIKOU/K0867S1100 A202 ASSAD/K0867F360 A202 VILAO/N0469F360 A202 RAMEI W42 PAKRI Y13 RUKSA EASTE1C
Aircraft A320/M-SDE3FGHIRWY/LB1

Departure

Time 2026-04-22 03:24
Airport Macau International Airport (VMMC)

Arrival

Time 2026-04-22 05:44
Airport Suvarnabhumi Airport (VTBS)
Time Latitude Longitude Altitude Speed Heading
2026-04-22 02:58 22.15565 113.57313 29 ft 0 kts 332°
2026-04-22 03:13 22.15560 113.57316 29 ft 4 kts 333°
2026-04-22 03:14 22.15535 113.57328 29 ft 4 kts 343°
2026-04-22 03:14 22.15509 113.57333 29 ft 4 kts
2026-04-22 03:14 22.15486 113.57327 29 ft 4 kts 45°
2026-04-22 03:14 22.15480 113.57320 29 ft 0 kts 63°
2026-04-22 03:18 22.15483 113.57328 29 ft 4 kts 63°
2026-04-22 03:18 22.15508 113.57379 29 ft 11 kts 63°
2026-04-22 03:19 22.15555 113.57473 29 ft 17 kts 60°
2026-04-22 03:19 22.15641 113.57590 29 ft 21 kts 43°
2026-04-22 03:19 22.15774 113.57674 29 ft 23 kts 20°
2026-04-22 03:19 22.15937 113.57722 29 ft 25 kts 15°
2026-04-22 03:20 22.16082 113.57770 29 ft 18 kts 42°
2026-04-22 03:20 22.16132 113.57902 29 ft 20 kts 71°
2026-04-22 03:20 22.16179 113.58052 29 ft 22 kts 71°
2026-04-22 03:20 22.16233 113.58219 29 ft 25 kts 71°
2026-04-22 03:21 22.16284 113.58381 29 ft 20 kts 71°
2026-04-22 03:21 22.16319 113.58491 29 ft 0 kts 71°
2026-04-22 03:22 22.16325 113.58508 29 ft 6 kts 71°
2026-04-22 03:22 22.16344 113.58571 29 ft 10 kts 75°
2026-04-22 03:22 22.16315 113.58638 29 ft 12 kts 153°
2026-04-22 03:22 22.16264 113.58658 29 ft 1 kts 161°
2026-04-22 03:23 22.16230 113.58671 29 ft 24 kts 161°
2026-04-22 03:23 22.15837 113.58815 28 ft 93 kts 161°
2026-04-22 03:23 22.15057 113.59101 28 ft 142 kts 161°
2026-04-22 03:23 22.14027 113.59481 355 ft 158 kts 161°
2026-04-22 03:24 22.12998 113.59878 1053 ft 157 kts 161°
2026-04-22 03:24 22.11964 113.60277 1688 ft 158 kts 164°
2026-04-22 03:24 22.10908 113.60674 2071 ft 171 kts 163°
2026-04-22 03:24 22.09707 113.61120 2310 ft 193 kts 163°
2026-04-22 03:25 22.08359 113.61620 2547 ft 217 kts 163°
2026-04-22 03:25 22.06845 113.62185 2913 ft 242 kts 162°
2026-04-22 03:25 22.05192 113.62807 3478 ft 258 kts 162°
2026-04-22 03:25 22.03477 113.63456 4336 ft 263 kts 163°
2026-04-22 03:26 22.01747 113.64111 5223 ft 265 kts 163°
2026-04-22 03:26 21.99990 113.64771 6083 ft 268 kts 164°
2026-04-22 03:26 21.98236 113.65427 6889 ft 271 kts 164°
2026-04-22 03:26 21.96431 113.66094 7653 ft 275 kts 165°
2026-04-22 03:27 21.94593 113.66755 8381 ft 280 kts 165°
2026-04-22 03:27 21.92733 113.67422 9094 ft 284 kts 166°
2026-04-22 03:27 21.90845 113.68102 9782 ft 288 kts 165°
2026-04-22 03:27 21.88905 113.68798 10263 ft 302 kts 165°
2026-04-22 03:28 21.86862 113.69529 10410 ft 324 kts 165°
2026-04-22 03:28 21.84642 113.70322 10544 ft 346 kts 165°
2026-04-22 03:28 21.82288 113.71162 10664 ft 365 kts 164°
2026-04-22 03:28 21.79826 113.72045 10811 ft 381 kts 164°
2026-04-22 03:29 21.77274 113.72963 11190 ft 390 kts 164°
2026-04-22 03:29 21.74681 113.73899 11693 ft 395 kts 163°
2026-04-22 03:29 21.72057 113.74850 12199 ft 400 kts 163°
2026-04-22 03:29 21.69433 113.75794 12721 ft 404 kts 164°
2026-04-22 03:30 21.66752 113.76760 13260 ft 407 kts 163°
2026-04-22 03:30 21.64053 113.77732 13762 ft 411 kts 163°
2026-04-22 03:30 21.61324 113.78711 14269 ft 414 kts 164°
2026-04-22 03:30 21.58568 113.79467 14739 ft 415 kts 173°
2026-04-22 03:31 21.55686 113.79714 15214 ft 415 kts 183°
2026-04-22 03:31 21.52786 113.79640 15696 ft 418 kts 184°
2026-04-22 03:31 21.49864 113.79563 16157 ft 421 kts 184°
2026-04-22 03:31 21.46923 113.79492 16615 ft 424 kts 184°
2026-04-22 03:32 21.43956 113.79421 17057 ft 427 kts 184°
2026-04-22 03:32 21.40972 113.79351 17484 ft 430 kts 184°
2026-04-22 03:32 21.38004 113.79283 17888 ft 433 kts 184°
2026-04-22 03:32 21.34981 113.79216 18280 ft 436 kts 184°
2026-04-22 03:33 21.31942 113.79146 18684 ft 438 kts 184°
2026-04-22 03:33 21.28882 113.79075 19058 ft 441 kts 184°
2026-04-22 03:33 21.25800 113.79005 19438 ft 444 kts 184°
2026-04-22 03:33 21.22705 113.78930 19803 ft 446 kts 184°
2026-04-22 03:34 21.19585 113.78856 20152 ft 449 kts 184°
2026-04-22 03:34 21.16470 113.78641 20492 ft 449 kts 192°
2026-04-22 03:34 21.13465 113.77762 20822 ft 447 kts 204°
2026-04-22 03:34 21.10732 113.76189 21137 ft 445 kts 217°
2026-04-22 03:35 21.08400 113.74015 21448 ft 445 kts 229°
2026-04-22 03:35 21.06585 113.71386 21745 ft 444 kts 242°
2026-04-22 03:35 21.05323 113.68377 22055 ft 444 kts 252°
2026-04-22 03:35 21.04316 113.65245 22357 ft 446 kts 252°
2026-04-22 03:36 21.03305 113.62099 22649 ft 448 kts 252°
2026-04-22 03:36 21.02286 113.58942 22946 ft 450 kts 252°
2026-04-22 03:36 21.01258 113.55768 23226 ft 451 kts 252°
2026-04-22 03:36 21.00223 113.52582 23491 ft 453 kts 252°
2026-04-22 03:37 20.99186 113.49389 23745 ft 455 kts 252°
2026-04-22 03:37 20.98144 113.46189 23981 ft 457 kts 252°
2026-04-22 03:37 20.97094 113.42972 24208 ft 458 kts 252°
2026-04-22 03:37 20.96040 113.39743 24452 ft 460 kts 252°
2026-04-22 03:38 20.94983 113.36505 24686 ft 461 kts 252°
2026-04-22 03:38 20.93929 113.33263 24997 ft 461 kts 252°
2026-04-22 03:38 20.92877 113.30029 25360 ft 460 kts 252°
2026-04-22 03:38 20.91825 113.26799 25755 ft 459 kts 252°
2026-04-22 03:39 20.90791 113.23634 26117 ft 458 kts 252°
2026-04-22 03:39 20.89732 113.20408 26482 ft 457 kts 252°
2026-04-22 03:39 20.88678 113.17199 26846 ft 456 kts 252°
2026-04-22 03:39 20.87627 113.13995 27205 ft 456 kts 252°
2026-04-22 03:40 20.86919 113.11832 27442 ft 455 kts 252°
2026-04-22 03:40 20.85889 113.08679 27801 ft 454 kts 252°
2026-04-22 03:40 20.84848 113.05493 28167 ft 454 kts 252°
2026-04-22 03:40 20.83804 113.02307 28540 ft 453 kts 252°
2026-04-22 03:41 20.82762 112.99133 28926 ft 452 kts 252°
2026-04-22 03:41 20.81716 112.95956 29341 ft 451 kts 252°
2026-04-22 03:41 20.80671 112.92792 29706 ft 451 kts 252°
2026-04-22 03:41 20.79972 112.89544 30056 ft 448 kts 266°
2026-04-22 03:42 20.79970 112.86258 30408 ft 447 kts 272°
2026-04-22 03:42 20.80085 112.82938 30782 ft 446 kts 273°
2026-04-22 03:42 20.80207 112.79624 31178 ft 445 kts 273°
2026-04-22 03:42 20.80328 112.76325 31565 ft 444 kts 273°
2026-04-22 03:43 20.80444 112.73027 31951 ft 443 kts 273°
2026-04-22 03:43 20.80559 112.69733 32329 ft 442 kts 273°
2026-04-22 03:43 20.80675 112.66451 32716 ft 441 kts 273°
2026-04-22 03:43 20.80793 112.63169 33092 ft 441 kts 273°
2026-04-22 03:44 20.80908 112.59900 33479 ft 439 kts 274°
2026-04-22 03:44 20.81019 112.56672 33841 ft 439 kts 274°
2026-04-22 03:44 20.81128 112.53403 33958 ft 441 kts 274°
2026-04-22 03:44 20.81239 112.50097 33980 ft 448 kts 274°
2026-04-22 03:45 20.81468 112.43401 33978 ft 452 kts 274°
2026-04-22 03:45 20.81690 112.36657 33978 ft 453 kts 274°
2026-04-22 03:46 20.81908 112.29922 33978 ft 454 kts 274°
2026-04-22 03:46 20.82126 112.23232 33977 ft 454 kts 274°
2026-04-22 03:47 20.82347 112.16471 33978 ft 454 kts 274°
2026-04-22 03:47 20.82563 112.09725 33984 ft 454 kts 274°
2026-04-22 03:48 20.82773 112.02979 33989 ft 454 kts 274°
2026-04-22 03:48 20.82971 111.96228 33992 ft 454 kts 274°
2026-04-22 03:49 20.83185 111.89483 33991 ft 453 kts 274°
2026-04-22 03:49 20.83392 111.82798 33984 ft 452 kts 274°
2026-04-22 03:50 20.83591 111.76073 33978 ft 452 kts 274°
2026-04-22 03:50 20.83785 111.69356 33980 ft 452 kts 274°
2026-04-22 03:51 20.83973 111.62629 33980 ft 452 kts 274°
2026-04-22 03:51 20.84165 111.55916 33979 ft 451 kts 274°
2026-04-22 03:52 20.83863 111.49206 33979 ft 456 kts 261°
2026-04-22 03:52 20.81910 111.42767 33977 ft 459 kts 253°
2026-04-22 03:53 20.79756 111.36359 33973 ft 458 kts 253°
2026-04-22 03:53 20.77607 111.29941 33969 ft 458 kts 253°
2026-04-22 03:54 20.75454 111.23526 33966 ft 458 kts 253°
2026-04-22 03:54 20.73315 111.17161 33967 ft 458 kts 253°
2026-04-22 03:55 20.71150 111.10754 33962 ft 458 kts 253°
2026-04-22 03:55 20.68985 111.04345 33963 ft 459 kts 253°
2026-04-22 03:56 20.66814 110.97924 33966 ft 459 kts 253°
2026-04-22 03:56 20.64655 110.91545 33965 ft 459 kts 253°
2026-04-22 03:57 20.62491 110.85125 33970 ft 459 kts 253°
2026-04-22 03:57 20.60339 110.78692 33970 ft 459 kts 253°
2026-04-22 03:58 20.58195 110.72297 33971 ft 460 kts 253°
2026-04-22 03:58 20.56028 110.65866 33972 ft 460 kts 253°
2026-04-22 03:59 20.53862 110.59430 33974 ft 461 kts 253°
2026-04-22 03:59 20.51696 110.53021 33975 ft 461 kts 253°
2026-04-22 04:00 20.48591 110.46991 33978 ft 470 kts 235°
2026-04-22 04:00 20.44439 110.41579 33972 ft 471 kts 234°
2026-04-22 04:01 20.40296 110.36156 33976 ft 472 kts 234°
2026-04-22 04:01 20.36156 110.30732 33969 ft 472 kts 234°
2026-04-22 04:02 20.31996 110.25288 33965 ft 473 kts 234°
2026-04-22 04:02 20.27851 110.19848 33961 ft 473 kts 234°
2026-04-22 04:03 20.23771 110.14397 33962 ft 474 kts 235°
2026-04-22 04:03 20.19671 110.08888 33968 ft 474 kts 234°
2026-04-22 04:04 20.15559 110.03389 33971 ft 475 kts 234°
2026-04-22 04:04 20.11422 109.97890 33970 ft 475 kts 234°
2026-04-22 04:05 20.07289 109.92403 33973 ft 475 kts 234°
2026-04-22 04:05 20.03147 109.86909 33972 ft 475 kts 234°
2026-04-22 04:06 19.99006 109.81426 33976 ft 475 kts 234°
2026-04-22 04:06 19.94893 109.75971 33976 ft 475 kts 234°
2026-04-22 04:07 19.90758 109.70477 33974 ft 475 kts 234°
2026-04-22 04:07 19.86623 109.64996 33956 ft 475 kts 234°
2026-04-22 04:08 19.82494 109.59543 34267 ft 476 kts 234°
2026-04-22 04:08 19.80414 109.56797 34678 ft 475 kts 234°
2026-04-22 04:08 19.78345 109.54065 35075 ft 474 kts 234°
2026-04-22 04:09 19.76285 109.51344 35468 ft 472 kts 234°
2026-04-22 04:09 19.74227 109.48625 35823 ft 471 kts 234°
2026-04-22 04:09 19.72177 109.45916 35951 ft 471 kts 234°
2026-04-22 04:09 19.70123 109.43209 35965 ft 470 kts 234°
2026-04-22 04:10 19.66018 109.37802 35969 ft 469 kts 234°
2026-04-22 04:10 19.61946 109.32445 35969 ft 469 kts 234°
2026-04-22 04:11 19.57833 109.27045 35969 ft 469 kts 234°
2026-04-22 04:11 19.53731 109.21658 35983 ft 470 kts 234°
2026-04-22 04:12 19.49620 109.16268 35983 ft 470 kts 234°
2026-04-22 04:12 19.45483 109.10901 35981 ft 470 kts 234°
2026-04-22 04:13 19.41338 109.05533 35983 ft 471 kts 234°
2026-04-22 04:13 19.37216 109.00190 35994 ft 470 kts 233°
2026-04-22 04:14 19.33065 108.94830 35994 ft 470 kts 233°
2026-04-22 04:14 19.28913 108.89463 35991 ft 470 kts 233°
2026-04-22 04:15 19.24788 108.84138 35988 ft 470 kts 233°
2026-04-22 04:15 19.20634 108.78778 35995 ft 470 kts 233°
2026-04-22 04:16 19.14409 108.70732 35995 ft 470 kts 233°
2026-04-22 04:17 19.10251 108.65380 35995 ft 470 kts 233°
2026-04-22 04:17 19.06119 108.60067 35994 ft 470 kts 233°
2026-04-22 04:18 19.01957 108.54715 35996 ft 471 kts 233°
2026-04-22 04:18 18.97789 108.49364 35998 ft 471 kts 233°
2026-04-22 04:19 18.93611 108.43996 35998 ft 472 kts 233°
2026-04-22 04:19 18.89470 108.38686 36002 ft 472 kts 233°
2026-04-22 04:20 18.85285 108.33323 35996 ft 472 kts 233°
2026-04-22 04:20 18.81102 108.27965 35994 ft 473 kts 233°
2026-04-22 04:21 18.76912 108.22603 36001 ft 473 kts 233°
2026-04-22 04:21 18.72719 108.17244 36001 ft 473 kts 232°
2026-04-22 04:22 18.68521 108.11884 35998 ft 474 kts 232°
2026-04-22 04:22 18.64354 108.06563 35991 ft 474 kts 232°
2026-04-22 04:23 18.60165 108.01213 35996 ft 474 kts 232°
2026-04-22 04:23 18.55944 107.95835 35990 ft 474 kts 232°
2026-04-22 04:24 18.51724 107.90473 35997 ft 475 kts 232°
2026-04-22 04:24 18.47503 107.85109 35993 ft 475 kts 232°
2026-04-22 04:25 18.43312 107.79783 35998 ft 475 kts 232°
2026-04-22 04:25 18.39086 107.74424 35997 ft 475 kts 232°
2026-04-22 04:26 18.35551 107.69939 35991 ft 475 kts 232°
2026-04-22 04:26 18.31815 107.64286 35985 ft 473 kts 239°
2026-04-22 04:27 18.28295 107.58437 35990 ft 473 kts 239°
2026-04-22 04:27 18.24746 107.52561 35989 ft 473 kts 239°
2026-04-22 04:28 18.21231 107.46762 35994 ft 473 kts 239°
2026-04-22 04:28 18.17694 107.40930 35994 ft 473 kts 239°
2026-04-22 04:29 18.14163 107.35112 35992 ft 473 kts 239°
2026-04-22 04:29 18.10614 107.29272 35993 ft 472 kts 239°
2026-04-22 04:30 18.07078 107.23454 35987 ft 472 kts 239°
2026-04-22 04:30 18.05310 107.20546 35836 ft 471 kts 239°
2026-04-22 04:30 18.03543 107.17641 35887 ft 472 kts 239°
2026-04-22 04:31 18.00008 107.11829 35879 ft 472 kts 239°
2026-04-22 04:31 17.96465 107.06012 35883 ft 474 kts 239°
2026-04-22 04:32 17.92927 107.00223 35880 ft 474 kts 239°
2026-04-22 04:32 17.89358 106.94395 35875 ft 474 kts 239°
2026-04-22 04:33 17.85799 106.88564 35880 ft 474 kts 239°
2026-04-22 04:33 17.82252 106.82710 35884 ft 475 kts 239°
2026-04-22 04:34 17.78720 106.76902 35884 ft 475 kts 239°
2026-04-22 04:34 17.75162 106.71063 35887 ft 475 kts 239°
2026-04-22 04:35 17.71607 106.65227 35889 ft 475 kts 239°
2026-04-22 04:35 17.68047 106.59380 35891 ft 475 kts 239°
2026-04-22 04:36 17.64473 106.53538 35893 ft 475 kts 239°
2026-04-22 04:36 17.60904 106.47735 35897 ft 475 kts 239°
2026-04-22 04:37 17.57328 106.41908 35895 ft 475 kts 239°
2026-04-22 04:37 17.53749 106.36080 35888 ft 475 kts 239°
2026-04-22 04:38 17.50171 106.30262 35885 ft 474 kts 239°
2026-04-22 04:38 17.46592 106.24449 35886 ft 474 kts 239°
2026-04-22 04:39 17.43036 106.18672 35888 ft 474 kts 239°
2026-04-22 04:39 17.39438 106.12853 35892 ft 475 kts 239°
2026-04-22 04:40 17.35875 106.07068 35897 ft 475 kts 239°
2026-04-22 04:40 17.32332 106.01223 35908 ft 474 kts 240°
2026-04-22 04:41 17.28816 105.95378 35919 ft 474 kts 240°
2026-04-22 04:41 17.25291 105.89547 35923 ft 474 kts 239°
2026-04-22 04:42 17.21782 105.83763 35917 ft 473 kts 239°
2026-04-22 04:42 17.18250 105.77954 35918 ft 473 kts 239°
2026-04-22 04:43 17.14720 105.72150 35922 ft 473 kts 239°
2026-04-22 04:43 17.11183 105.66340 35925 ft 473 kts 239°
2026-04-22 04:44 17.07666 105.60568 35930 ft 473 kts 239°
2026-04-22 04:44 17.04131 105.54759 35931 ft 473 kts 239°
2026-04-22 04:45 17.00594 105.48955 35928 ft 472 kts 239°
2026-04-22 04:45 16.97078 105.43206 35925 ft 472 kts 239°
2026-04-22 04:46 16.93541 105.37425 35927 ft 472 kts 239°
2026-04-22 04:46 16.90003 105.31623 35933 ft 472 kts 239°
2026-04-22 04:47 16.86483 105.25872 35938 ft 472 kts 239°
2026-04-22 04:47 16.82934 105.20090 35939 ft 472 kts 239°
2026-04-22 04:48 16.79387 105.14304 35941 ft 472 kts 239°
2026-04-22 04:48 16.75868 105.08559 35945 ft 472 kts 239°
2026-04-22 04:49 16.72314 105.02790 35950 ft 472 kts 239°
2026-04-22 04:49 16.68764 104.97025 35951 ft 472 kts 239°
2026-04-22 04:50 16.65219 104.91265 35956 ft 472 kts 239°
2026-04-22 04:50 16.61670 104.85509 35958 ft 472 kts 239°
2026-04-22 04:51 16.58139 104.79789 35959 ft 472 kts 239°
2026-04-22 04:51 16.54204 104.74322 35959 ft 473 kts 230°
2026-04-22 04:52 16.49814 104.69227 35959 ft 473 kts 230°
2026-04-22 04:52 16.45408 104.64105 35957 ft 474 kts 230°
2026-04-22 04:53 16.41014 104.58984 35957 ft 474 kts 230°
2026-04-22 04:53 16.36610 104.53857 35958 ft 474 kts 230°
2026-04-22 04:54 16.32229 104.48778 35955 ft 474 kts 230°
2026-04-22 04:54 16.27832 104.43679 35950 ft 473 kts 230°
2026-04-22 04:55 16.23418 104.38574 35944 ft 474 kts 229°
2026-04-22 04:55 16.18997 104.33532 35938 ft 473 kts 229°
2026-04-22 04:56 16.14557 104.28484 35938 ft 473 kts 229°
2026-04-22 04:56 16.10121 104.23426 35927 ft 473 kts 229°
2026-04-22 04:57 16.05687 104.18353 35921 ft 473 kts 229°
2026-04-22 04:57 16.01285 104.13260 35917 ft 473 kts 230°
2026-04-22 04:58 15.96943 104.08173 35913 ft 473 kts 230°
2026-04-22 04:58 15.92573 104.03055 35910 ft 473 kts 230°
2026-04-22 04:59 15.88184 103.97936 35908 ft 473 kts 230°
2026-04-22 04:59 15.83816 103.92862 35907 ft 473 kts 230°
2026-04-22 05:00 15.79425 103.87762 35907 ft 473 kts 230°
2026-04-22 05:00 15.75029 103.82653 35907 ft 473 kts 230°
2026-04-22 05:01 15.70667 103.77590 35907 ft 473 kts 230°
2026-04-22 05:01 15.66273 103.72486 35909 ft 474 kts 230°
2026-04-22 05:02 15.61868 103.67383 35911 ft 474 kts 230°
2026-04-22 05:02 15.57463 103.62283 35912 ft 474 kts 230°
2026-04-22 05:03 15.53093 103.57221 35912 ft 474 kts 230°
2026-04-22 05:03 15.48691 103.52119 35913 ft 474 kts 230°
2026-04-22 05:04 15.44286 103.47014 35913 ft 474 kts 230°
2026-04-22 05:04 15.39879 103.41919 35913 ft 474 kts 230°
2026-04-22 05:05 15.35461 103.36830 35911 ft 474 kts 229°
2026-04-22 05:05 15.31073 103.31773 35911 ft 475 kts 230°
2026-04-22 05:06 15.26654 103.26671 35913 ft 475 kts 229°
2026-04-22 05:06 15.22230 103.21576 35913 ft 475 kts 229°
2026-04-22 05:07 15.17843 103.16529 35912 ft 474 kts 229°
2026-04-22 05:07 15.13423 103.11439 35909 ft 474 kts 229°
2026-04-22 05:08 15.09005 103.06355 35908 ft 474 kts 229°
2026-04-22 05:08 15.04456 103.01456 35908 ft 476 kts 220°
2026-04-22 05:09 14.98899 102.97715 35904 ft 477 kts 212°
2026-04-22 05:09 14.93178 102.94213 35900 ft 477 kts 212°
2026-04-22 05:10 14.88158 102.89807 35893 ft 473 kts 232°
2026-04-22 05:10 14.84852 102.83985 35890 ft 469 kts 251°
2026-04-22 05:11 14.82872 102.77614 35889 ft 469 kts 254°
2026-04-22 05:11 14.80899 102.71177 35889 ft 469 kts 253°
2026-04-22 05:12 14.78912 102.64741 35891 ft 469 kts 253°
2026-04-22 05:12 14.76950 102.58349 35891 ft 469 kts 254°
2026-04-22 05:13 14.74970 102.51915 35894 ft 469 kts 253°
2026-04-22 05:13 14.73320 102.46569 35872 ft 469 kts 254°
2026-04-22 05:14 14.71007 102.39083 35881 ft 469 kts 253°
2026-04-22 05:14 14.69355 102.33738 35887 ft 469 kts 253°
2026-04-22 05:15 14.67366 102.27301 35891 ft 470 kts 253°
2026-04-22 05:15 14.65375 102.20872 35893 ft 470 kts 253°
2026-04-22 05:16 14.63392 102.14474 35895 ft 470 kts 253°
2026-04-22 05:16 14.61397 102.08028 35896 ft 470 kts 253°
2026-04-22 05:17 14.59394 102.01598 35894 ft 470 kts 253°
2026-04-22 05:17 14.57405 101.95206 35895 ft 470 kts 253°
2026-04-22 05:18 14.54098 101.85675 35662 ft 469 kts 249°
2026-04-22 05:18 14.52829 101.82580 34362 ft 470 kts 248°
2026-04-22 05:18 14.51508 101.79464 32827 ft 476 kts 248°
2026-04-22 05:19 14.50173 101.76314 31192 ft 481 kts 248°
2026-04-22 05:19 14.48854 101.73152 29454 ft 492 kts 248°
2026-04-22 05:19 14.47510 101.69856 28114 ft 501 kts 248°
2026-04-22 05:19 14.46168 101.66507 26841 ft 505 kts 248°
2026-04-22 05:20 14.44838 101.63161 25505 ft 500 kts 248°
2026-04-22 05:20 14.43531 101.59872 24180 ft 491 kts 248°
2026-04-22 05:20 14.42244 101.56643 22875 ft 479 kts 248°
2026-04-22 05:20 14.40979 101.53482 21745 ft 477 kts 248°
2026-04-22 05:21 14.39728 101.50363 20777 ft 474 kts 248°
2026-04-22 05:21 14.38469 101.47229 19776 ft 472 kts 248°
2026-04-22 05:21 14.37215 101.44115 18797 ft 468 kts 247°
2026-04-22 05:21 14.35974 101.41040 18320 ft 454 kts 247°
2026-04-22 05:22 14.34789 101.38111 18203 ft 432 kts 247°
2026-04-22 05:22 14.33657 101.35308 18065 ft 414 kts 248°
2026-04-22 05:22 14.32572 101.32617 17942 ft 398 kts 248°
2026-04-22 05:22 14.31425 101.30085 17736 ft 384 kts 239°
2026-04-22 05:23 14.29892 101.27906 17498 ft 377 kts 228°
2026-04-22 05:23 14.27975 101.26072 17280 ft 375 kts 219°
2026-04-22 05:23 14.25969 101.24374 16950 ft 373 kts 219°
2026-04-22 05:23 14.23966 101.22674 16578 ft 370 kts 219°
2026-04-22 05:24 14.21985 101.20988 16209 ft 368 kts 219°
2026-04-22 05:24 14.20015 101.19309 15839 ft 367 kts 219°
2026-04-22 05:24 14.18051 101.17636 15471 ft 365 kts 219°
2026-04-22 05:24 14.16094 101.15970 15106 ft 363 kts 219°
2026-04-22 05:25 14.14154 101.14318 14757 ft 361 kts 219°
2026-04-22 05:25 14.12221 101.12673 14392 ft 360 kts 219°
2026-04-22 05:25 14.10307 101.11046 14141 ft 350 kts 219°
2026-04-22 05:25 14.08481 101.09494 14021 ft 338 kts 219°
2026-04-22 05:26 14.06669 101.08010 13877 ft 328 kts 213°
2026-04-22 05:26 14.04663 101.06942 13667 ft 321 kts 199°
2026-04-22 05:26 14.02517 101.06309 13350 ft 318 kts 194°
2026-04-22 05:26 14.00382 101.05729 13017 ft 316 kts 194°
2026-04-22 05:27 13.98289 101.05158 12709 ft 313 kts 194°
2026-04-22 05:27 13.96183 101.04581 12373 ft 312 kts 194°
2026-04-22 05:27 13.94093 101.04006 12039 ft 310 kts 194°
2026-04-22 05:27 13.92014 101.03432 11717 ft 308 kts 194°
2026-04-22 05:28 13.89942 101.02862 11402 ft 307 kts 194°
2026-04-22 05:28 13.87888 101.02301 11082 ft 305 kts 194°
2026-04-22 05:28 13.85833 101.01738 10715 ft 304 kts 195°
2026-04-22 05:28 13.83844 101.01089 10360 ft 302 kts 207°
2026-04-22 05:29 13.82244 100.99731 10018 ft 300 kts 234°
2026-04-22 05:29 13.81423 100.97781 9651 ft 299 kts 261°
2026-04-22 05:29 13.81543 100.95673 9290 ft 298 kts 284°
2026-04-22 05:29 13.82082 100.93602 8961 ft 296 kts 285°
2026-04-22 05:30 13.82659 100.91600 8841 ft 287 kts 292°
2026-04-22 05:30 13.83854 100.90035 8722 ft 278 kts 326°
2026-04-22 05:30 13.85637 100.89410 8593 ft 270 kts 359°
2026-04-22 05:30 13.87454 100.89767 8391 ft 266 kts 17°
2026-04-22 05:31 13.89230 100.90287 8082 ft 266 kts 15°
2026-04-22 05:31 13.91015 100.90774 7813 ft 265 kts 14°
2026-04-22 05:31 13.92776 100.91245 7548 ft 264 kts 14°
2026-04-22 05:31 13.94558 100.91725 7299 ft 263 kts 14°
2026-04-22 05:32 13.96333 100.92201 6968 ft 263 kts 13°
2026-04-22 05:32 13.98133 100.92237 6679 ft 259 kts 343°
2026-04-22 05:32 13.99657 100.91318 6400 ft 254 kts 310°
2026-04-22 05:32 14.00462 100.89747 6126 ft 248 kts 278°
2026-04-22 05:33 14.00680 100.88010 5869 ft 248 kts 278°
2026-04-22 05:33 14.01071 100.86289 5614 ft 245 kts 283°
2026-04-22 05:33 14.01485 100.84595 5335 ft 241 kts 272°
2026-04-22 05:33 14.01188 100.82944 5057 ft 235 kts 238°
2026-04-22 05:34 14.00044 100.81812 4833 ft 230 kts 204°
2026-04-22 05:34 13.98527 100.81336 4594 ft 227 kts 194°
2026-04-22 05:34 13.97005 100.80945 4342 ft 222 kts 194°
2026-04-22 05:34 13.95554 100.80569 4129 ft 213 kts 194°
2026-04-22 05:35 13.94134 100.80202 3933 ft 207 kts 196°
2026-04-22 05:35 13.92923 100.79484 3753 ft 203 kts 229°
2026-04-22 05:35 13.92366 100.78182 3542 ft 203 kts 264°
2026-04-22 05:35 13.92564 100.76760 3345 ft 202 kts 290°
2026-04-22 05:36 13.93457 100.75654 3151 ft 207 kts 328°
2026-04-22 05:36 13.94840 100.75332 3034 ft 210 kts
2026-04-22 05:36 13.96122 100.75985 3010 ft 209 kts 49°
2026-04-22 05:36 13.96720 100.77301 3012 ft 205 kts 89°
2026-04-22 05:37 13.96413 100.78687 3018 ft 199 kts 126°
2026-04-22 05:37 13.95390 100.79590 3018 ft 194 kts 157°
2026-04-22 05:37 13.94118 100.79956 3009 ft 193 kts 176°
2026-04-22 05:37 13.92792 100.79846 3010 ft 192 kts 195°
2026-04-22 05:38 13.91523 100.79499 3038 ft 181 kts 195°
2026-04-22 05:38 13.90361 100.79192 3022 ft 164 kts 194°
2026-04-22 05:38 13.89300 100.78918 3012 ft 152 kts 194°
2026-04-22 05:38 13.88309 100.78661 3039 ft 142 kts 194°
2026-04-22 05:39 13.87373 100.78416 3025 ft 139 kts 195°
2026-04-22 05:39 13.86438 100.78169 2862 ft 138 kts 194°
2026-04-22 05:39 13.85508 100.77925 2714 ft 137 kts 194°
2026-04-22 05:39 13.84587 100.77683 2572 ft 136 kts 194°
2026-04-22 05:40 13.83668 100.77441 2439 ft 136 kts 194°
2026-04-22 05:40 13.82755 100.77198 2308 ft 135 kts 195°
2026-04-22 05:40 13.81850 100.76959 2172 ft 135 kts 194°
2026-04-22 05:40 13.80943 100.76719 2042 ft 134 kts 195°
2026-04-22 05:41 13.80053 100.76486 1916 ft 133 kts 194°
2026-04-22 05:41 13.79149 100.76249 1789 ft 134 kts 194°
2026-04-22 05:41 13.78252 100.76016 1644 ft 133 kts 194°
2026-04-22 05:41 13.77354 100.75782 1468 ft 133 kts 194°
2026-04-22 05:42 13.76452 100.75542 1302 ft 133 kts 194°
2026-04-22 05:42 13.75562 100.75307 1117 ft 132 kts 194°
2026-04-22 05:42 13.74673 100.75075 953 ft 132 kts 194°
2026-04-22 05:42 13.73799 100.74843 770 ft 131 kts 194°
2026-04-22 05:43 13.72916 100.74601 591 ft 131 kts 194°
2026-04-22 05:43 13.72015 100.74361 422 ft 137 kts 195°
2026-04-22 05:43 13.71101 100.74127 266 ft 133 kts 195°
2026-04-22 05:43 13.70202 100.73895 121 ft 134 kts 194°
2026-04-22 05:44 13.69325 100.73663 16 ft 119 kts 193°
2026-04-22 05:44 13.68677 100.73495 12 ft 72 kts 194°
2026-04-22 05:44 13.68436 100.73448 12 ft 20 kts 178°
2026-04-22 05:44 13.68299 100.73471 13 ft 20 kts 163°
2026-04-22 05:45 13.68169 100.73513 14 ft 10 kts 161°
2026-04-22 05:45 13.68156 100.73520 14 ft 2 kts 140°
2026-04-22 05:45 13.68167 100.73546 13 ft 7 kts 41°
2026-04-22 05:45 13.68233 100.73567 13 ft 12 kts 15°
2026-04-22 05:46 13.68323 100.73591 14 ft 15 kts 14°
2026-04-22 05:46 13.68431 100.73620 13 ft 18 kts 14°
2026-04-22 05:46 13.68559 100.73654 13 ft 21 kts 14°
2026-04-22 05:46 13.68685 100.73687 13 ft 14 kts 14°
2026-04-22 05:47 13.68770 100.73718 14 ft 14 kts 41°
2026-04-22 05:47 13.68776 100.73815 14 ft 16 kts 106°
2026-04-22 05:47 13.68747 100.73931 15 ft 18 kts 104°
2026-04-22 05:47 13.68715 100.74056 14 ft 17 kts 104°
2026-04-22 05:48 13.68711 100.74163 14 ft 15 kts 56°
2026-04-22 05:48 13.68802 100.74221 15 ft 16 kts 58°
2026-04-22 05:48 13.68786 100.74337 13 ft 18 kts 104°
2026-04-22 05:48 13.68752 100.74474 13 ft 21 kts 104°
2026-04-22 05:49 13.68716 100.74616 13 ft 14 kts 104°
2026-04-22 05:49 13.68745 100.74710 13 ft 17 kts 24°
2026-04-22 05:49 13.68865 100.74744 13 ft 19 kts 14°
2026-04-22 05:49 13.68990 100.74776 14 ft 13 kts 14°
2026-04-22 05:50 13.69067 100.74794 13 ft 9 kts 359°
2026-04-22 05:50 13.69121 100.74791 13 ft 4 kts
2026-04-22 05:50 13.69138 100.74796 13 ft 0 kts 13°